Birmingham International Airport (BHM)

 

Airport Diagram
Current Weather/Forecast (VFR Conditions)
METAR KBHM 210353Z 11004KT 10SM CLR 23/11 A3025 RMK AO2 SLP236 T02330106
TAF KBHM 202338Z 2100/2124 12008KT P6SM SCT250 FM210100 10003KT P6SM SKC FM211500 12006KT P6SM FEW050

All Charts
General
Chart Name Download
AIRPORT DIAGRAM
TAKEOFF MINIMUMS
ALTERNATE MINIMUMS
LAHSO

Departures
Chart Name Download
BIRMINGHAM SEVEN
BIRMINGHAM SEVEN, CONT.1

Approaches
Chart Name Download
ILS OR LOC RWY 06
ILS OR LOC RWY 24
ILS RWY 06 (CAT II)
ILS RWY 24 (SA CAT II)
RNAV (RNP) Z RWY 06
RNAV (RNP) Z RWY 24
RNAV (GPS) RWY 18
RNAV (GPS) RWY 36
RNAV (GPS) Y RWY 06
RNAV (GPS) Y RWY 24
LOC RWY 18


Inbound Traffic (Arrivals)

No inbound traffic.


Outbound Traffic (Departures)

No outbound traffic.